owner,sensor,date,latitude,longitude,vertical_datum,wind_speed,wind_to_direction,wind_speed_of_gust,qcFlag 
TABS,ioos:station:wmo:42045:1,2012-11-01T00:00:00Z,26.2168,-96.4998,4.0,5.053711507,153.9422493,7.06,'11111222,11111222,11111222' 
TABS,ioos:station:wmo:42045:1,2012-11-01T00:30:00Z,26.2168,-96.4998,4.0,5.999633322,148.2176049,6.9,'11111222,11111222,11111222' 
TABS,ioos:station:wmo:42045:1,2012-11-01T01:00:00Z,26.2168,-96.4998,4.0,7.082040666,143.324566,8.16,'11111222,11111222,11111222' 
TABS,ioos:station:wmo:42045:1,2012-11-01T01:30:00Z,26.2168,-96.4998,4.0,6.880210753,150.193424,7.89,'11111222,11111222,11111222' 
TABS,ioos:station:wmo:42045:1,2012-11-01T02:00:00Z,26.2168,-96.4998,4.0,6.439604025,155.5047681,7.59,'11111222,11111222,11111222' 
TABS,ioos:station:wmo:42045:1,2012-11-01T02:30:00Z,26.2168,-96.4998,4.0,6.075294232,151.916694,7.08,'11111222,11111222,11111222' 
TABS,ioos:station:wmo:42045:1,2012-11-01T03:00:00Z,26.2168,-96.4998,4.0,6.263233989,145.4729225,7.14,'11111222,11111222,11111222' 
TABS,ioos:station:wmo:42045:1,2012-11-01T03:30:00Z,26.2168,-96.4998,4.0,6.629155301,154.6335386,7.81,'11111222,11111222,11111222' 
TABS,ioos:station:wmo:42045:1,2012-11-01T04:00:00Z,26.2168,-96.4998,4.0,5.889923599,151.1724369,7.06,'11111222,11111222,11111222' 
TABS,ioos:station:wmo:42045:1,2012-11-01T04:30:00Z,26.2168,-96.4998,4.0,5.964226689,164.2395907,7.47,'11111222,11111222,11111222' 
TABS,ioos:station:wmo:42045:1,2012-11-01T05:00:00Z,26.2168,-96.4998,4.0,6.209041794,159.3470106,7.07,'11111222,11111222,11111222' 
TABS,ioos:station:wmo:42045:1,2012-11-01T05:30:00Z,26.2168,-96.4998,4.0,6.112233634,171.8171002,6.92,'11111222,11111222,11111222' 
TABS,ioos:station:wmo:42045:1,2012-11-01T06:00:00Z,26.2168,-96.4998,4.0,5.681065041,172.3122804,6.9,'11111222,11111222,11111222' 
TABS,ioos:station:wmo:42045:1,2012-11-01T06:30:00Z,26.2168,-96.4998,4.0,5.607503901,177.0357626,6.83,'11111222,11111222,11111222' 
TABS,ioos:station:wmo:42045:1,2012-11-01T07:00:00Z,26.2168,-96.4998,4.0,5.686413633,182.7217225,6.73,'11111222,11111222,11111222' 
TABS,ioos:station:wmo:42045:1,2012-11-01T07:30:00Z,26.2168,-96.4998,4.0,5.617259118,188.1879933,6.7,'11111222,11111222,11111222' 
TABS,ioos:station:wmo:42045:1,2012-11-01T08:00:00Z,26.2168,-96.4998,4.0,6.362837417,178.289057,7.41,'11111222,11111222,11111222' 
TABS,ioos:station:wmo:42045:1,2012-11-01T08:30:00Z,26.2168,-96.4998,4.0,5.887758487,163.3196471,7.14,'11111222,11111222,11111222' 
TABS,ioos:station:wmo:42045:1,2012-11-01T09:00:00Z,26.2168,-96.4998,4.0,5.612307903,157.3646924,6.71,'11111222,11111222,11111222' 
TABS,ioos:station:wmo:42045:1,2012-11-01T09:30:00Z,26.2168,-96.4998,4.0,4.897448315,183.1605647,5.91,'11111222,11111222,11111222' 
TABS,ioos:station:wmo:42045:1,2012-11-01T10:00:00Z,26.2168,-96.4998,4.0,4.830921237,129.4566322,8.06,'11111222,11111222,11111222' 
TABS,ioos:station:wmo:42045:1,2012-11-01T10:30:00Z,26.2168,-96.4998,4.0,7.741789199,112.1590995,9.63,'11111222,11111222,11111222' 
TABS,ioos:station:wmo:42045:1,2012-11-01T11:00:00Z,26.2168,-96.4998,4.0,7.522798681,156.3316384,10.16,'11111222,11111222,11111222' 
TABS,ioos:station:wmo:42045:1,2012-11-01T11:30:00Z,26.2168,-96.4998,4.0,2.043648698,188.7250369,3.15,'11111222,11111222,11111222' 
TABS,ioos:station:wmo:42045:1,2012-11-01T12:00:00Z,26.2168,-96.4998,4.0,0.790063289,180.7254331,1.36,'11111222,11111222,11111222' 
TABS,ioos:station:wmo:42045:1,2012-11-01T12:30:00Z,26.2168,-96.4998,4.0,1.389244399,247.1263883,2.55,'11111222,11111222,11111222' 
TABS,ioos:station:wmo:42045:1,2012-11-01T13:00:00Z,26.2168,-96.4998,4.0,2.577750958,221.8551551,3.53,'11111222,11111222,11111222' 
TABS,ioos:station:wmo:42045:1,2012-11-01T13:30:00Z,26.2168,-96.4998,4.0,4.50131092,173.2383362,5.86,'11111222,11111222,11111222' 
TABS,ioos:station:wmo:42045:1,2012-11-01T14:00:00Z,26.2168,-96.4998,4.0,3.444139951,160.670955,5.55,'11111222,11111222,11111222' 
TABS,ioos:station:wmo:42045:1,2012-11-01T14:30:00Z,26.2168,-96.4998,4.0,4.249729403,170.3827581,5.34,'11111222,11111222,11111222' 
TABS,ioos:station:wmo:42045:1,2012-11-01T15:00:00Z,26.2168,-96.4998,4.0,4.186096033,147.4871039,5.04,'11111222,11111222,11111222' 
TABS,ioos:station:wmo:42045:1,2012-11-01T15:30:00Z,26.2168,-96.4998,4.0,5.350756956,149.0732543,7.24,'11111222,11111222,11111222' 
TABS,ioos:station:wmo:42045:1,2012-11-01T16:00:00Z,26.2168,-96.4998,4.0,3.784983487,149.1663305,4.81,'11111222,11111222,11111222' 
TABS,ioos:station:wmo:42045:1,2012-11-01T16:30:00Z,26.2168,-96.4998,4.0,3.318508701,157.685866,4.36,'11111222,11111222,11111222' 
TABS,ioos:station:wmo:42045:1,2012-11-01T17:00:00Z,26.2168,-96.4998,4.0,2.395704489,171.5995476,3.18,'11111222,11111222,11111222' 
TABS,ioos:station:wmo:42045:1,2012-11-01T17:30:00Z,26.2168,-96.4998,4.0,1.626099628,150.1242876,2.38,'11111222,11111222,11111222' 
TABS,ioos:station:wmo:42045:1,2012-11-01T18:00:00Z,26.2168,-96.4998,4.0,2.748472303,157.5407552,3.77,'11111222,11111222,11111222' 
TABS,ioos:station:wmo:42045:1,2012-11-01T18:30:00Z,26.2168,-96.4998,4.0,2.121980207,168.5843976,3.34,'11111222,11111222,11111222' 
TABS,ioos:station:wmo:42045:1,2012-11-01T19:00:00Z,26.2168,-96.4998,4.0,2.197384809,175.3015409,2.96,'11111222,11111222,11111222' 
TABS,ioos:station:wmo:42045:1,2012-11-01T19:30:00Z,26.2168,-96.4998,4.0,2.293141949,162.7505628,3.4,'11111222,11111222,11111222' 
TABS,ioos:station:wmo:42045:1,2012-11-01T20:00:00Z,26.2168,-96.4998,4.0,2.160948866,155.0954999,2.98,'11111222,11111222,11111222' 
TABS,ioos:station:wmo:42045:1,2012-11-01T20:30:00Z,26.2168,-96.4998,4.0,2.335551327,132.571048,3.22,'11111222,11111222,11111222' 
TABS,ioos:station:wmo:42045:1,2012-11-01T21:00:00Z,26.2168,-96.4998,4.0,3.498170951,107.2957805,4.56,'11111222,11111222,11111222' 
TABS,ioos:station:wmo:42045:1,2012-11-01T21:30:00Z,26.2168,-96.4998,4.0,5.404377855,120.2186309,6.38,'11111222,11111222,11111222' 
TABS,ioos:station:wmo:42045:1,2012-11-01T22:00:00Z,26.2168,-96.4998,4.0,6.025877529,119.2027211,7.32,'11111222,11111222,11111222' 
TABS,ioos:station:wmo:42045:1,2012-11-01T22:30:00Z,26.2168,-96.4998,4.0,5.740278739,131.1862498,6.98,'11111222,11111222,11111222' 
TABS,ioos:station:wmo:42045:1,2012-11-01T23:00:00Z,26.2168,-96.4998,4.0,5.761084967,124.4627645,7.1,'11111222,11111222,11111222' 
TABS,ioos:station:wmo:42045:1,2012-11-01T23:30:00Z,26.2168,-96.4998,4.0,5.666127425,127.2544897,6.83,'11111222,11111222,11111222' 
TABS,ioos:station:wmo:42045:1,2012-11-02T00:00:00Z,26.2168,-96.4998,4.0,5.635778562,123.8595892,6.73,'11111222,11111222,11111222' 
TABS,ioos:station:wmo:42045:1,2012-11-02T00:30:00Z,26.2168,-96.4998,4.0,5.423098745,132.1603012,6.63,'11111222,11111222,11111222' 
TABS,ioos:station:wmo:42045:1,2012-11-02T01:00:00Z,26.2168,-96.4998,4.0,5.883281397,134.5871331,6.9,'11111222,11111222,11111222' 
TABS,ioos:station:wmo:42045:1,2012-11-02T01:30:00Z,26.2168,-96.4998,4.0,6.51462969,130.1437231,8.09,'11111222,11111222,11111222' 
TABS,ioos:station:wmo:42045:1,2012-11-02T02:00:00Z,26.2168,-96.4998,4.0,6.509938556,138.4252409,7.93,'11111222,11111222,11111222' 
TABS,ioos:station:wmo:42045:1,2012-11-02T02:30:00Z,26.2168,-96.4998,4.0,7.096935959,130.8292958,8.43,'11111222,11111222,11111222' 
TABS,ioos:station:wmo:42045:1,2012-11-02T03:00:00Z,26.2168,-96.4998,4.0,7.184740775,130.5410727,8.41,'11111222,11111222,11111222' 
TABS,ioos:station:wmo:42045:1,2012-11-02T03:30:00Z,26.2168,-96.4998,4.0,7.28431191,136.0014969,8.67,'11111222,11111222,11111222' 
TABS,ioos:station:wmo:42045:1,2012-11-02T04:00:00Z,26.2168,-96.4998,4.0,7.3495374,141.3526676,8.88,'11111222,11111222,11111222' 
TABS,ioos:station:wmo:42045:1,2012-11-02T04:30:00Z,26.2168,-96.4998,4.0,7.352564179,146.2021576,8.62,'11111222,11111222,11111222' 
TABS,ioos:station:wmo:42045:1,2012-11-02T05:00:00Z,26.2168,-96.4998,4.0,6.52981623,141.7790061,8.35,'11111222,11111222,11111222' 
TABS,ioos:station:wmo:42045:1,2012-11-02T05:30:00Z,26.2168,-96.4998,4.0,7.102013799,143.2433444,8.06,'11111222,11111222,11111222' 
TABS,ioos:station:wmo:42045:1,2012-11-02T06:00:00Z,26.2168,-96.4998,4.0,6.744249402,143.623143,8.86,'11111222,11111222,11111222' 
TABS,ioos:station:wmo:42045:1,2012-11-02T06:30:00Z,26.2168,-96.4998,4.0,6.443888578,141.7431941,7.57,'11111222,11111222,11111222' 
TABS,ioos:station:wmo:42045:1,2012-11-02T07:00:00Z,26.2168,-96.4998,4.0,7.00058569,149.1488155,8.25,'11111222,11111222,11111222' 
TABS,ioos:station:wmo:42045:1,2012-11-02T07:30:00Z,26.2168,-96.4998,4.0,6.634885078,150.7695354,7.67,'11111222,11111222,11111222' 
TABS,ioos:station:wmo:42045:1,2012-11-02T08:00:00Z,26.2168,-96.4998,4.0,6.576845749,159.9948219,7.64,'11111222,11111222,11111222' 
TABS,ioos:station:wmo:42045:1,2012-11-02T08:30:00Z,26.2168,-96.4998,4.0,6.97711975,158.915582,9.93,'11111222,11111222,11111222' 
TABS,ioos:station:wmo:42045:1,2012-11-02T09:00:00Z,26.2168,-96.4998,4.0,6.460193496,179.5567546,8.57,'11111222,11111222,11111222' 
TABS,ioos:station:wmo:42045:1,2012-11-02T09:30:00Z,26.2168,-96.4998,4.0,6.404568682,162.5555013,7.52,'11111222,11111222,11111222' 
TABS,ioos:station:wmo:42045:1,2012-11-02T10:00:00Z,26.2168,-96.4998,4.0,6.477561269,167.3371156,7.85,'11111222,11111222,11111222' 
TABS,ioos:station:wmo:42045:1,2012-11-02T10:30:00Z,26.2168,-96.4998,4.0,6.384864916,161.0828862,7.58,'11111222,11111222,11111222' 
TABS,ioos:station:wmo:42045:1,2012-11-02T11:00:00Z,26.2168,-96.4998,4.0,5.961786645,152.7475347,7.44,'11111222,11111222,11111222' 
TABS,ioos:station:wmo:42045:1,2012-11-02T11:30:00Z,26.2168,-96.4998,4.0,5.793694849,158.2172159,6.91,'11111222,11111222,11111222' 
TABS,ioos:station:wmo:42045:1,2012-11-02T12:00:00Z,26.2168,-96.4998,4.0,5.825066523,156.2075567,7.14,'11111222,11111222,11111222' 
TABS,ioos:station:wmo:42045:1,2012-11-02T12:30:00Z,26.2168,-96.4998,4.0,5.465839368,164.6164147,6.6,'11111222,11111222,11111222' 
TABS,ioos:station:wmo:42045:1,2012-11-02T13:00:00Z,26.2168,-96.4998,4.0,5.868219491,168.0009516,7.03,'11111222,11111222,11111222' 
TABS,ioos:station:wmo:42045:1,2012-11-02T13:30:00Z,26.2168,-96.4998,4.0,5.321362607,164.1879597,6.27,'11111222,11111222,11111222' 
TABS,ioos:station:wmo:42045:1,2012-11-02T14:00:00Z,26.2168,-96.4998,4.0,5.638386294,156.481441,6.81,'11111222,11111222,11111222' 
TABS,ioos:station:wmo:42045:1,2012-11-02T14:30:00Z,26.2168,-96.4998,4.0,5.251218906,169.9100872,6.49,'11111222,11111222,11111222' 
TABS,ioos:station:wmo:42045:1,2012-11-02T15:00:00Z,26.2168,-96.4998,4.0,6.431337341,155.6669078,7.68,'11111222,11111222,11111222' 
TABS,ioos:station:wmo:42045:1,2012-11-02T15:30:00Z,26.2168,-96.4998,4.0,6.191712203,147.4652194,7.67,'11111222,11111222,11111222' 
TABS,ioos:station:wmo:42045:1,2012-11-02T16:00:00Z,26.2168,-96.4998,4.0,5.300235844,152.4682981,6.86,'11111222,11111222,11111222' 
TABS,ioos:station:wmo:42045:1,2012-11-02T16:30:00Z,26.2168,-96.4998,4.0,6.365689279,158.4328469,7.48,'11111222,11111222,11111222' 
TABS,ioos:station:wmo:42045:1,2012-11-02T17:00:00Z,26.2168,-96.4998,4.0,5.634900177,150.2049513,7.01,'11111222,11111222,11111222' 
TABS,ioos:station:wmo:42045:1,2012-11-02T17:30:00Z,26.2168,-96.4998,4.0,5.760772518,149.4288393,6.89,'11111222,11111222,11111222' 
TABS,ioos:station:wmo:42045:1,2012-11-02T18:00:00Z,26.2168,-96.4998,4.0,5.535070009,155.3335737,6.34,'11111222,11111222,11111222' 
TABS,ioos:station:wmo:42045:1,2012-11-02T18:30:00Z,26.2168,-96.4998,4.0,5.675808312,155.8737833,7.12,'11111222,11111222,11111222' 
TABS,ioos:station:wmo:42045:1,2012-11-02T19:00:00Z,26.2168,-96.4998,4.0,5.854109668,153.7416123,6.83,'11111222,11111222,11111222' 
TABS,ioos:station:wmo:42045:1,2012-11-02T19:30:00Z,26.2168,-96.4998,4.0,6.044005295,159.4664037,6.89,'11111222,11111222,11111222' 
TABS,ioos:station:wmo:42045:1,2012-11-02T20:00:00Z,26.2168,-96.4998,4.0,5.882329471,166.9326174,7.21,'11111222,11111222,11111222' 
TABS,ioos:station:wmo:42045:1,2012-11-02T20:30:00Z,26.2168,-96.4998,4.0,6.177200013,152.3151741,7.43,'11111222,11111222,11111222' 
TABS,ioos:station:wmo:42045:1,2012-11-02T21:00:00Z,26.2168,-96.4998,4.0,6.147332755,150.6831428,7.55,'11111222,11111222,11111222' 
TABS,ioos:station:wmo:42045:1,2012-11-02T21:30:00Z,26.2168,-96.4998,4.0,6.170129658,157.008957,7.13,'11111222,11111222,11111222' 
TABS,ioos:station:wmo:42045:1,2012-11-02T22:00:00Z,26.2168,-96.4998,4.0,6.622537278,155.3701492,7.58,'11111222,11111222,11111222' 
TABS,ioos:station:wmo:42045:1,2012-11-02T22:30:00Z,26.2168,-96.4998,4.0,7.101753305,153.399141,8.14,'11111222,11111222,11111222' 
TABS,ioos:station:wmo:42045:1,2012-11-02T23:00:00Z,26.2168,-96.4998,4.0,7.045282109,148.7017941,8.31,'11111222,11111222,11111222' 
TABS,ioos:station:wmo:42045:1,2012-11-02T23:30:00Z,26.2168,-96.4998,4.0,6.623352625,145.8303699,7.91,'11111222,11111222,11111222' 
TABS,ioos:station:wmo:42045:1,2012-11-03T00:00:00Z,26.2168,-96.4998,4.0,6.766394904,153.2080092,8.07,'11111222,11111222,11111222' 
TABS,ioos:station:wmo:42045:1,2012-11-03T00:30:00Z,26.2168,-96.4998,4.0,7.244066538,147.8020729,8.37,'11111222,11111222,11111222' 
TABS,ioos:station:wmo:42045:1,2012-11-03T01:00:00Z,26.2168,-96.4998,4.0,7.073570527,151.7324368,8.52,'11111222,11111222,11111222' 
TABS,ioos:station:wmo:42045:1,2012-11-03T01:30:00Z,26.2168,-96.4998,4.0,7.220110802,149.1726202,8.73,'11111222,11111222,11111222' 
TABS,ioos:station:wmo:42045:1,2012-11-03T02:00:00Z,26.2168,-96.4998,4.0,7.057492473,141.3278138,8.44,'11111222,11111222,11111222' 
TABS,ioos:station:wmo:42045:1,2012-11-03T02:30:00Z,26.2168,-96.4998,4.0,7.914625702,155.11895,9.41,'11111222,11111222,11111222' 
TABS,ioos:station:wmo:42045:1,2012-11-03T03:00:00Z,26.2168,-96.4998,4.0,6.942225868,156.5740967,8.88,'11111222,11111222,11111222' 
TABS,ioos:station:wmo:42045:1,2012-11-03T03:30:00Z,26.2168,-96.4998,4.0,7.463430846,155.2894688,8.75,'11111222,11111222,11111222' 
TABS,ioos:station:wmo:42045:1,2012-11-03T04:00:00Z,26.2168,-96.4998,4.0,8.178532876,160.723434,9.76,'11111222,11111222,11111222' 
TABS,ioos:station:wmo:42045:1,2012-11-03T04:30:00Z,26.2168,-96.4998,4.0,8.212429604,163.1539909,9.46,'11111222,11111222,11111222' 
TABS,ioos:station:wmo:42045:1,2012-11-03T05:00:00Z,26.2168,-96.4998,4.0,7.821310632,164.0447894,8.98,'11111222,11111222,11111222' 
TABS,ioos:station:wmo:42045:1,2012-11-03T05:30:00Z,26.2168,-96.4998,4.0,8.347382823,159.5245493,9.99,'11111222,11111222,11111222' 
TABS,ioos:station:wmo:42045:1,2012-11-03T06:00:00Z,26.2168,-96.4998,4.0,7.993328468,154.5893144,9.26,'11111222,11111222,11111222' 
TABS,ioos:station:wmo:42045:1,2012-11-03T06:30:00Z,26.2168,-96.4998,4.0,7.178091668,152.8997637,8.65,'11111222,11111222,11111222' 
TABS,ioos:station:wmo:42045:1,2012-11-03T07:00:00Z,26.2168,-96.4998,4.0,7.442210693,149.9211779,8.5,'11111222,11111222,11111222' 
TABS,ioos:station:wmo:42045:1,2012-11-03T07:30:00Z,26.2168,-96.4998,4.0,7.428223206,147.1445653,8.66,'11111222,11111222,11111222' 
TABS,ioos:station:wmo:42045:1,2012-11-03T08:00:00Z,26.2168,-96.4998,4.0,7.960609273,147.0488355,9.39,'11111222,11111222,11111222' 
TABS,ioos:station:wmo:42045:1,2012-11-03T08:30:00Z,26.2168,-96.4998,4.0,8.158192202,149.0967488,9.55,'11111222,11111222,11111222' 
TABS,ioos:station:wmo:42045:1,2012-11-03T09:00:00Z,26.2168,-96.4998,4.0,7.376028742,152.2887666,9.49,'11111222,11111222,11111222' 
TABS,ioos:station:wmo:42045:1,2012-11-03T09:30:00Z,26.2168,-96.4998,4.0,8.496046139,142.9415723,10.3,'11111222,11111222,11111222' 
TABS,ioos:station:wmo:42045:1,2012-11-03T10:00:00Z,26.2168,-96.4998,4.0,8.343242775,144.119341,9.92,'11111222,11111222,11111222' 
TABS,ioos:station:wmo:42045:1,2012-11-03T10:30:00Z,26.2168,-96.4998,4.0,7.94353196,142.0051193,10.59,'11111222,11111222,11111222' 
TABS,ioos:station:wmo:42045:1,2012-11-03T11:00:00Z,26.2168,-96.4998,4.0,9.416283768,144.8587275,11.73,'11111222,11111222,11111222' 
TABS,ioos:station:wmo:42045:1,2012-11-03T11:30:00Z,26.2168,-96.4998,4.0,8.644188799,136.594055,10.45,'11111222,11111222,11111222' 
TABS,ioos:station:wmo:42045:1,2012-11-03T12:00:00Z,26.2168,-96.4998,4.0,8.637082841,145.7582576,10.33,'11111222,11111222,11111222' 
TABS,ioos:station:wmo:42045:1,2012-11-03T12:30:00Z,26.2168,-96.4998,4.0,9.384412608,148.9527608,11.0,'11111222,11111222,11111222' 
TABS,ioos:station:wmo:42045:1,2012-11-03T13:00:00Z,26.2168,-96.4998,4.0,7.642525761,137.2273574,9.09,'11111222,11111222,11111222' 
TABS,ioos:station:wmo:42045:1,2012-11-03T13:30:00Z,26.2168,-96.4998,4.0,8.796868761,149.7625972,10.14,'11111222,11111222,11111222' 
TABS,ioos:station:wmo:42045:1,2012-11-03T14:00:00Z,26.2168,-96.4998,4.0,7.63581037,149.8086581,9.62,'11111222,11111222,11111222' 
TABS,ioos:station:wmo:42045:1,2012-11-03T14:30:00Z,26.2168,-96.4998,4.0,6.966929022,164.0887412,8.37,'11111222,11111222,11111222' 
TABS,ioos:station:wmo:42045:1,2012-11-03T15:00:00Z,26.2168,-96.4998,4.0,5.810421671,148.7997688,6.75,'11111222,11111222,11111222' 
TABS,ioos:station:wmo:42045:1,2012-11-03T15:30:00Z,26.2168,-96.4998,4.0,7.561084578,146.9827736,10.1,'11111222,11111222,11111222' 
TABS,ioos:station:wmo:42045:1,2012-11-03T16:00:00Z,26.2168,-96.4998,4.0,6.424033001,133.1079761,7.78,'11111222,11111222,11111222' 
TABS,ioos:station:wmo:42045:1,2012-11-03T16:30:00Z,26.2168,-96.4998,4.0,6.674443797,131.3558347,7.69,'11111222,11111222,11111222' 
TABS,ioos:station:wmo:42045:1,2012-11-03T17:00:00Z,26.2168,-96.4998,4.0,7.130007013,133.5227794,8.32,'11111222,11111222,11111222' 
TABS,ioos:station:wmo:42045:1,2012-11-03T17:30:00Z,26.2168,-96.4998,4.0,7.282341656,147.6196085,8.52,'11111222,11111222,11111222' 
TABS,ioos:station:wmo:42045:1,2012-11-03T18:00:00Z,26.2168,-96.4998,4.0,6.930115439,142.7996919,7.88,'11111222,11111222,11111222' 
TABS,ioos:station:wmo:42045:1,2012-11-03T18:30:00Z,26.2168,-96.4998,4.0,7.304197423,149.2921286,8.75,'11111222,11111222,11111222' 
TABS,ioos:station:wmo:42045:1,2012-11-03T19:00:00Z,26.2168,-96.4998,4.0,7.05800255,143.179106,8.53,'11111222,11111222,11111222' 
TABS,ioos:station:wmo:42045:1,2012-11-03T19:30:00Z,26.2168,-96.4998,4.0,6.631930337,148.7550139,8.53,'11111222,11111222,11111222' 
TABS,ioos:station:wmo:42045:1,2012-11-03T20:00:00Z,26.2168,-96.4998,4.0,5.237804884,164.610811,6.05,'11111222,11111222,11111222' 
TABS,ioos:station:wmo:42045:1,2012-11-03T20:30:00Z,26.2168,-96.4998,4.0,5.964536864,158.2523659,8.02,'11111222,11111222,11111222' 
TABS,ioos:station:wmo:42045:1,2012-11-03T21:00:00Z,26.2168,-96.4998,4.0,7.178335462,146.9964969,8.57,'11111222,11111222,11111222' 
TABS,ioos:station:wmo:42045:1,2012-11-03T21:30:00Z,26.2168,-96.4998,4.0,8.025690001,134.8488738,10.1,'11111222,11111222,11111222' 
TABS,ioos:station:wmo:42045:1,2012-11-03T22:00:00Z,26.2168,-96.4998,4.0,4.96235831,102.2161115,8.46,'11111222,11111222,11111222' 
TABS,ioos:station:wmo:42045:1,2012-11-03T22:30:00Z,26.2168,-96.4998,4.0,8.096375732,135.0503555,9.58,'11111222,11111222,11111222' 
TABS,ioos:station:wmo:42045:1,2012-11-03T23:00:00Z,26.2168,-96.4998,4.0,5.177576653,121.172866,7.34,'11111222,11111222,11111222' 
TABS,ioos:station:wmo:42045:1,2012-11-03T23:30:00Z,26.2168,-96.4998,4.0,4.502410466,139.233377,7.63,'11111222,11111222,11111222' 
TABS,ioos:station:wmo:42045:1,2012-11-04T00:00:00Z,26.2168,-96.4998,4.0,7.014627574,157.2735857,8.3,'11111222,11111222,11111222' 
TABS,ioos:station:wmo:42045:1,2012-11-04T00:30:00Z,26.2168,-96.4998,4.0,7.25358532,148.128868,8.41,'11111222,11111222,11111222' 
TABS,ioos:station:wmo:42045:1,2012-11-04T01:00:00Z,26.2168,-96.4998,4.0,7.188003895,147.6146829,8.32,'11111222,11111222,11111222' 
TABS,ioos:station:wmo:42045:1,2012-11-04T01:30:00Z,26.2168,-96.4998,4.0,6.950582709,158.1223149,8.17,'11111222,11111222,11111222' 
TABS,ioos:station:wmo:42045:1,2012-11-04T02:00:00Z,26.2168,-96.4998,4.0,6.728714587,155.0348171,7.9,'11111222,11111222,11111222' 
TABS,ioos:station:wmo:42045:1,2012-11-04T02:30:00Z,26.2168,-96.4998,4.0,6.856070303,147.9328938,7.98,'11111222,11111222,11111222' 
TABS,ioos:station:wmo:42045:1,2012-11-04T03:00:00Z,26.2168,-96.4998,4.0,7.836663831,149.9017264,9.09,'11111222,11111222,11111222' 
TABS,ioos:station:wmo:42045:1,2012-11-04T03:30:00Z,26.2168,-96.4998,4.0,8.232034985,149.3230022,9.5,'11111222,11111222,11111222' 
TABS,ioos:station:wmo:42045:1,2012-11-04T04:00:00Z,26.2168,-96.4998,4.0,7.27170544,153.5409328,8.56,'11111222,11111222,11111222' 
TABS,ioos:station:wmo:42045:1,2012-11-04T04:30:00Z,26.2168,-96.4998,4.0,7.124043795,155.4498155,8.24,'11111222,11111222,11111222' 
TABS,ioos:station:wmo:42045:1,2012-11-04T05:00:00Z,26.2168,-96.4998,4.0,6.998435539,151.4943598,8.23,'11111222,11111222,11111222' 
TABS,ioos:station:wmo:42045:1,2012-11-04T05:30:00Z,26.2168,-96.4998,4.0,6.672967855,152.7056246,7.85,'11111222,11111222,11111222' 
TABS,ioos:station:wmo:42045:1,2012-11-04T06:00:00Z,26.2168,-96.4998,4.0,5.90427811,152.3502063,6.91,'11111222,11111222,11111222' 
TABS,ioos:station:wmo:42045:1,2012-11-04T06:30:00Z,26.2168,-96.4998,4.0,5.771247699,156.1889796,6.98,'11111222,11111222,11111222' 
TABS,ioos:station:wmo:42045:1,2012-11-04T07:00:00Z,26.2168,-96.4998,4.0,6.148243652,149.1803645,7.3,'11111222,11111222,11111222' 
TABS,ioos:station:wmo:42045:1,2012-11-04T07:30:00Z,26.2168,-96.4998,4.0,6.006563077,159.3325696,7.5,'11111222,11111222,11111222' 
TABS,ioos:station:wmo:42045:1,2012-11-04T08:00:00Z,26.2168,-96.4998,4.0,5.389860852,162.8428128,6.63,'11111222,11111222,11111222' 
TABS,ioos:station:wmo:42045:1,2012-11-04T08:30:00Z,26.2168,-96.4998,4.0,4.983422519,154.8236232,6.21,'11111222,11111222,11111222' 
TABS,ioos:station:wmo:42045:1,2012-11-04T09:00:00Z,26.2168,-96.4998,4.0,4.307122009,154.2681212,5.24,'11111222,11111222,11111222' 
TABS,ioos:station:wmo:42045:1,2012-11-04T09:30:00Z,26.2168,-96.4998,4.0,4.396191534,153.0855066,5.55,'11111222,11111222,11111222' 
TABS,ioos:station:wmo:42045:1,2012-11-04T10:00:00Z,26.2168,-96.4998,4.0,5.788281265,158.6216225,6.81,'11111222,11111222,11111222' 
TABS,ioos:station:wmo:42045:1,2012-11-04T10:30:00Z,26.2168,-96.4998,4.0,5.506078459,158.7012629,6.39,'11111222,11111222,11111222' 
TABS,ioos:station:wmo:42045:1,2012-11-04T11:00:00Z,26.2168,-96.4998,4.0,5.022369958,153.8943931,5.87,'11111222,11111222,11111222' 
TABS,ioos:station:wmo:42045:1,2012-11-04T11:30:00Z,26.2168,-96.4998,4.0,4.749821049,152.6799553,5.67,'11111222,11111222,11111222' 
TABS,ioos:station:wmo:42045:1,2012-11-04T12:00:00Z,26.2168,-96.4998,4.0,4.416163493,157.5001592,5.22,'11111222,11111222,11111222' 
TABS,ioos:station:wmo:42045:1,2012-11-04T12:30:00Z,26.2168,-96.4998,4.0,3.44200523,143.0305229,4.56,'11111222,11111222,11111222' 
TABS,ioos:station:wmo:42045:1,2012-11-04T13:00:00Z,26.2168,-96.4998,4.0,3.534020373,142.9358475,4.19,'11111222,11111222,11111222' 
TABS,ioos:station:wmo:42045:1,2012-11-04T13:30:00Z,26.2168,-96.4998,4.0,2.221823575,124.5487072,2.89,'11111222,11111222,11111222' 
TABS,ioos:station:wmo:42045:1,2012-11-04T14:00:00Z,26.2168,-96.4998,4.0,2.115466852,105.3505215,3.63,'11111222,11111222,11111222' 
TABS,ioos:station:wmo:42045:1,2012-11-04T14:30:00Z,26.2168,-96.4998,4.0,5.755388779,104.1815001,7.07,'11111222,11111222,11111222' 
TABS,ioos:station:wmo:42045:1,2012-11-04T15:00:00Z,26.2168,-96.4998,4.0,4.737531003,96.18033072,5.7,'11111222,11111222,11111222' 
TABS,ioos:station:wmo:42045:1,2012-11-04T15:30:00Z,26.2168,-96.4998,4.0,4.508137088,113.9499494,5.3,'11111222,11111222,11111222' 
TABS,ioos:station:wmo:42045:1,2012-11-04T16:00:00Z,26.2168,-96.4998,4.0,4.499688878,115.5403488,5.65,'11111222,11111222,11111222' 
TABS,ioos:station:wmo:42045:1,2012-11-04T16:30:00Z,26.2168,-96.4998,4.0,4.119927184,125.1176826,5.53,'11111222,11111222,11111222' 
TABS,ioos:station:wmo:42045:1,2012-11-04T17:00:00Z,26.2168,-96.4998,4.0,3.989147779,116.5011772,4.92,'11111222,11111222,11111222' 
TABS,ioos:station:wmo:42045:1,2012-11-04T17:30:00Z,26.2168,-96.4998,4.0,3.40851874,115.3625286,4.17,'11111222,11111222,11111222' 
TABS,ioos:station:wmo:42045:1,2012-11-04T18:00:00Z,26.2168,-96.4998,4.0,3.715292721,122.0220761,4.38,'11111222,11111222,11111222' 
TABS,ioos:station:wmo:42045:1,2012-11-04T18:30:00Z,26.2168,-96.4998,4.0,3.418844834,114.5414062,4.2,'11111222,11111222,11111222' 